Home   Weather   Getholm   Past weeks
Flag for Finland

Past Weather in Getholm, Finland — Yesterday and Last 2 Weeks

Now
54 °F

Clear.


Feels Like: 52 °F
Forecast: 71 / 56 °F
Wind: 6 mph from North

Location: Helsinki-Vantaa

Current Time: Jul 20, 2019 at 2:24:05 am

Latest Report: Jul 20, 2019 at 1:50 am


Visibility: 10 mi

Pressure: 29.86 "Hg

Humidity: 82%

Dew Point: 48 °F

Location of GetholmLocation

Past Weather in Getholm — Graph

°F

Getholm Temperature Yesterday

Maximum temperature yesterday: 75 °F (at 6:50 pm)
Minimum temperature yesterday: 54 °F (at 4:50 am)
Average temperature yesterday: 65 °F

High & Low Weather Summary for the Past Weeks

 TemperatureHumidityPressure
High75 °F (Jul 19, 6:50 pm)100% (Jul 5, 5:20 am)29.89 "Hg (Jul 5, 5:20 am)
Low39 °F (Jul 12, 3:50 am)26% (Jul 12, 4:50 pm)29.33 "Hg (Jul 5, 9:20 am)
Average59 °F73%29.70 "Hg
* Reported Jul 5 1:20 am — Jul 20 1:20 am, Getholm. Weather by CustomWeather, © 2019

Note: Actual official high and low records may vary slightly from our data, if they occured in-between our weather recording intervals... More about our weather records

Advertising

Getholm Weather History for the Previous 24 Hours

Scroll right to see more
 ConditionsComfort  
Time TempWeatherWind HumidityBarometerVisibility
1:20 am
Sat, Jul 20
55 °FClear.6 mph77%29.86 "Hg10 mi
12:50 am54 °FClear.6 mph82%29.86 "Hg10 mi
12:20 am54 °FClear.8 mph82%29.86 "Hg10 mi
11:50 pm
Fri, Jul 19
54 °FClear.7 mph82%29.86 "Hg10 mi
11:20 pm55 °FClear.6 mph82%29.83 "Hg10 mi
10:50 pm61 °FPassing clouds.3 mph68%29.83 "HgN/A
10:20 pm64 °FSunny.6 mph60%29.83 "Hg10 mi
9:50 pm68 °FSunny.7 mph49%29.83 "Hg10 mi
9:20 pm72 °FSunny.7 mph41%29.83 "Hg10 mi
8:50 pm72 °FSunny.8 mph44%29.83 "Hg10 mi
8:20 pm73 °FSunny.12 mph38%29.83 "Hg10 mi
7:50 pm73 °FPassing clouds.10 mph41%29.83 "HgN/A
7:20 pm73 °FPassing clouds.12 mph38%29.83 "HgN/A
6:50 pm75 °FSunny.14 mph39%29.83 "Hg10 mi
6:20 pm73 °FSunny.8 mph41%29.83 "Hg10 mi
5:50 pm73 °FPassing clouds.10 mph41%29.83 "HgN/A
5:20 pm73 °FPassing clouds.12 mph41%29.83 "HgN/A
4:50 pm73 °FSunny.14 mph41%29.80 "Hg10 mi
4:20 pm73 °FPassing clouds.10 mph38%29.80 "HgN/A
3:50 pm73 °FSunny.14 mph41%29.80 "Hg10 mi
3:20 pm73 °FPassing clouds.12 mph38%29.80 "HgN/A
2:50 pm73 °FPassing clouds.13 mph38%29.80 "HgN/A
2:20 pm72 °FPassing clouds.14 mph41%29.80 "HgN/A
1:50 pm72 °FPassing clouds.16 mph44%29.80 "HgN/A
1:20 pm72 °FPassing clouds.15 mph47%29.80 "HgN/A
12:50 pm72 °FPassing clouds.14 mph47%29.80 "HgN/A
12:20 pm70 °FPassing clouds.17 mph50%29.80 "HgN/A
11:50 am72 °FPassing clouds.14 mph50%29.80 "HgN/A
11:20 am70 °FPassing clouds.13 mph53%29.80 "HgN/A
10:50 am70 °FPassing clouds.14 mph57%29.83 "HgN/A
10:20 am68 °FPassing clouds.14 mph60%29.80 "HgN/A
9:50 am68 °FPassing clouds.14 mph64%29.80 "HgN/A
9:20 am66 °FSunny.14 mph64%29.80 "Hg10 mi
8:50 am64 °FSunny.10 mph68%29.83 "Hg10 mi
8:20 am63 °FSunny.13 mph73%29.83 "Hg10 mi
7:50 am61 °FSunny.10 mph72%29.83 "Hg10 mi
7:20 am59 °FSunny.10 mph72%29.83 "Hg10 mi
6:50 am57 °FSunny.9 mph77%29.83 "Hg10 mi
6:20 am57 °FSunny.9 mph77%29.83 "Hg10 mi
5:50 am55 °FSunny.7 mph77%29.83 "Hg10 mi
5:20 am55 °FSunny.7 mph77%29.83 "Hg10 mi
4:50 am54 °FSunny.8 mph82%29.83 "Hg10 mi
4:20 am55 °FClear.7 mph77%29.83 "Hg10 mi
3:50 am55 °FClear.8 mph77%29.83 "Hg10 mi
3:20 am55 °FClear.8 mph77%29.83 "Hg10 mi
2:50 am57 °FClear.9 mph72%29.83 "Hg10 mi
2:20 am57 °FClear.9 mph72%29.83 "Hg10 mi
Weather by CustomWeather, © 2019

See weather overview